Tracking 31027 objects as of 19-Jul-2025
HD Live streaming from Space Station
objects crossing your sky now

ONEWEB-0261

Track ONEWEB-0261 now!
10-day predictions
ONEWEB-0261 is classified as:


NORAD ID: 48979
Int'l Code: 2021-061N
Perigee: 1,203.0 km
Apogee: 1,206.8 km
Inclination: 87.9 °
Period: 109.4 minutes
Semi major axis: 7575 km
RCS: Unknown
Launch date: July 1, 2021
Source: United Kingdom (UK)
Launch site: VOSTOCHNY COSMODROME (VOSTO)
Your satellite tracking list
STARLINK-2062
Track 1 satellite(s)




NASA's NSSDC Master Catalog

Two Line Element Set (TLE):
1 48979U 21060N   25199.50855866  .00000054  00000-0  10692-3 0  9995
2 48979  87.9054 295.3177 0002469  98.5076 261.6335 13.16593399195754
Source of the keplerian elements: AFSPC